Location: Baili�vre
(50.0696°N, 4.2409°E)
Time: 15:10:24
(UTC+00:00)

USA 238 - Pass Details

Date: 08 August 2020
Orbit: 1006 x 1206 km, 63.4° (Epoch: 17 September)

Event Time Altitude Azimuth Distance (km) Brightness Sun altitude
Rises 20:30:13 0° 182° (S) 3,732 6.2 -11.0°
Reaches altitude 10° 20:33:05 10° 172° (S) 2,800 5.5 -11.4°
Maximum altitude 20:38:39 30° 114° (ESE) 1,768 4.4 -12.0°
Drops below altitude 10° 20:44:26 10° 56° (ENE) 2,909 5.9 -12.7°
Sets 20:47:27 0° 47° (NE) 3,901 6.6 -13.0°
